{"data":{"norad_id":53701,"epoch":"2026-09-20T05:40:57.279648Z","epoch_age_seconds":103980,"freshness":"FRESH","line1":"1 53701U 22107B   26263.23677407  .00000365  00000+0  21386-4 0  9990","line2":"2 53701  53.1638  86.6191 0001348  90.2575 269.8583 15.35398697224273","mean_motion":15.35398697,"eccentricity":0.0001348,"inclination_deg":53.1638,"raan_deg":86.6191,"arg_perigee_deg":90.2575,"mean_anomaly_deg":269.8583,"bstar":2.1386e-5,"rev_number":22427,"period_min":93.786714995499,"perigee_km":458.81476598212,"apogee_km":460.65825668078,"semimajor_km":6837.8735113314,"source":"CELESTRAK","updated_at":"2026-09-21T09:00:32.981604Z"}}